Regional Weather Roundup
Issued by NWS State College, PA

Home | Current Version | Previous Version | Graphics & Text | Print | Product List | Glossary Off
Versions: 1 2 3 4 5 6 7 8 9 10 11 12 13 14 15 16 17 18 19 20 21 22 23 24 25 26 27 28 29 30 31 32 33 34 35 36 37 38 39 40 41 42 43 44 45 46 47 48 49 50

000
ASUS41 KCTP 311810
RWRCTP

REGIONAL WEATHER ROUNDUP
NATIONAL WEATHER SERVICE STATE COLLEGE PA
200 PM EDT MON AUG 31 2015

Note: "fair" indicates few or no clouds below 12,000 feet with no
significant weather and/or obstructions to visibility.

* = STATION THAT DOES NOT REPORT PRECIPITATION /E.G. RAIN...SNOW...ETC/
    THUNDER OR FOG.

PAZ002>004-007>009-013>016-020>023-029>032-311900-
WESTERN PENNSYLVANIA

CITY           SKY/WX    TMP DP  RH WIND       PRES   REMARKS
ERIE           SUNNY     81  67  62 W8        30.08F
MEADVILLE      MOSUNNY   82  67  60 W7        30.11F
FRANKLIN*      MOSUNNY   82  66  57 NW8       30.13F
NEW CASTLE     FAIR      87  70  57 CALM      30.11F
BEAVER COUNTY  MOSUNNY   82  66  57 CALM      30.11F
BUTLER*        MOSUNNY   84  66  54 W8        30.12F
PITTSBURGH INT MOSUNNY   86  64  47 W10       30.11F
PITTSBURGH     MOSUNNY   86  59  39 NW6       30.10F
INDIANA*       MOSUNNY   82  66  57 NW8G14    30.14F
LATROBE        PTSUNNY   84  66  54 NW12      30.12F
WASHINGTON CO* SUNNY     84  63  48 SW8       30.12F
$$

PAZ004>006-010>012-017>019-024>028-033>037-041-042-045-046-049>053-311900-
CENTRAL PENNSYLVANIA

CITY           SKY/WX    TMP DP  RH WIND       PRES   REMARKS
BRADFORD       PTSUNNY   82  62  50 NW8       30.12F
DUBOIS         PTSUNNY   80  66  62 W8        30.12F
CLEARFIELD     MOSUNNY   86  65  49 W8        30.11F
JOHNSTOWN      PTSUNNY   79  61  53 NW10      30.16F
ALTOONA        LGT RAIN  72  66  81 NW8       30.13F
STATE COLLEGE  MOSUNNY   84  66  54 W9        30.10F
WILLIAMSPORT   PTSUNNY   82  68  62 W7        30.05F
SELINSGROVE    CLOUDY    86  69  56 CALM      30.05F
FT INDIANTOWN  PTSUNNY   88  67  48 VRB6      30.04F
CAPITAL CITY   MOSUNNY   89  66  46 W6        30.04F
HARRISBURG     PTSUNNY   86  68  54 CALM      30.04F
YORK           PTSUNNY   85  69  58 VRB6      30.06F
$$

PAZ038>040-043-044-047-048-054-055-060>062-067>071-311900-
EASTERN PENNSYLVANIA

CITY           SKY/WX    TMP DP  RH WIND       PRES   REMARKS
SCRANTON       LGT RAIN  80  70  71 N8        30.05F
MOUNT POCONO   PTSUNNY   79  63  57 W9        30.10F
ALLENTOWN      MOSUNNY   89  66  46 W10G17    30.03F
QUAKERTOWN*    MOCLDY    86  68  54 W6        30.05F
READING        MOSUNNY   87  67  51 W6        30.03F
LANCASTER      PTSUNNY   86  67  52 W8        30.05F
COATESVILLE    MOCLDY    84  70  61 W6        30.07F
POTTSTOWN      PTSUNNY   86  69  56 CALM      30.06F
BLUE BELL      CLOUDY    86  70  58 W5        30.04F
DOYLESTOWN     CLOUDY    85  67  54 SW5       30.04F
WILLOW GROVE   NOT AVBL
NORTH PHILA    CLOUDY    91  65  41 NW7       30.04F
PHILADELPHIA   CLOUDY    89  65  44 W14       30.03F
$$



USA.gov is the U.S. government's official web portal to all federal, state and local government web resources and services.